Location: Laverne
(36.7100°N, 99.8930°W)
Time: 18:07:44
(UTC-06:00)

SJ-6F - Pass Details

Date: 19 October 2017
Orbit: 571 x 595 km, 97.6° (Epoch: 24 November)

Event Time Altitude Azimuth Distance (km) Brightness Sun altitude
Rises 06:30:13 0° 8° (N) 2,788 8.0 -16.9°
Reaches altitude 10° 06:32:23 10° 5° (N) 1,883 7.1 -16.5°
Maximum altitude 06:36:25 64° 284° (WNW) 633 4.3 -15.6°
Drops below altitude 10° 06:40:25 10° 203° (SSW) 1,866 6.8 -14.8°
Sets 06:42:33 0° 200° (SSW) 2,760 7.7 -14.4°
